This is the latest recevied weather packets stored in our database for station/object XE2VP-WX. If no packets are shown the sender has not sent any weather packets the latest 10 day(s).
| Time | Temp. | Humidity | Pressure | Rain* | Wind** | Luminosity | Snow |
|---|---|---|---|---|---|---|---|
| 1778188563 | 26.11° C | 68% | 943 hPa | 0 mm | - | 802 W/m² | - |
| 1778188504 | 26.11° C | 68% | 943 hPa | 0 mm | - | 805 W/m² | - |
| 1778188443 | 26.11° C | 68% | 943.1 hPa | 0 mm | - | 805 W/m² | - |
| 1778188384 | 26.11° C | 68% | 943.1 hPa | 0 mm | - | 800 W/m² | - |
| 1778188324 | 26.11° C | 69% | 943.1 hPa | 0 mm | - | 799 W/m² | - |
| 1778188264 | 26.11° C | 69% | 943.2 hPa | 0.25 mm | - | 798 W/m² | - |
| 1778188204 | 26.11° C | 70% | 943 hPa | 0.25 mm | - | 804 W/m² | - |
| 1778188143 | 25.56° C | 69% | 943.1 hPa | 0.76 mm | - | 811 W/m² | - |
| 1778188084 | 25.56° C | 70% | 943.2 hPa | 0.76 mm | - | 812 W/m² | - |
| 1778188024 | 25.56° C | 70% | 943.2 hPa | 1.02 mm | - | 812 W/m² | - |
| 1778187964 | 25.56° C | 71% | 943.2 hPa | 1.02 mm | - | 816 W/m² | - |
| 1778187904 | 25.56° C | 71% | 943.3 hPa | 1.52 mm | - | 816 W/m² | - |
| 1778187844 | 25.56° C | 72% | 943.2 hPa | 1.52 mm | - | 819 W/m² | - |
| 1778187784 | 25.56° C | 72% | 943.3 hPa | 1.78 mm | - | 822 W/m² | - |
| 1778187724 | 25.56° C | 72% | 943.3 hPa | 2.03 mm | - | 822 W/m² | - |
| 1778187664 | 25.56° C | 72% | 943.4 hPa | 2.29 mm | - | 827 W/m² | - |
| 1778187605 | 25.56° C | 72% | 943.4 hPa | 2.54 mm | - | 831 W/m² | - |
| 1778187546 | 25.56° C | 72% | 943.5 hPa | 2.79 mm | - | 831 W/m² | - |
| 1778187485 | 25.56° C | 73% | 943.5 hPa | 2.79 mm | - | 830 W/m² | - |
| 1778187425 | 25.56° C | 73% | 943.6 hPa | 2.79 mm | - | 836 W/m² | - |
| 1778187365 | 25.56° C | 73% | 943.6 hPa | 2.79 mm | - | 845 W/m² | - |
| 1778187306 | 25.56° C | 73% | 943.5 hPa | 2.79 mm | - | 848 W/m² | - |
| 1778187245 | 25.56° C | 73% | 943.6 hPa | 3.05 mm | - | 847 W/m² | - |
| 1778187186 | 25.56° C | 73% | 943.6 hPa | 3.05 mm | - | 842 W/m² | - |
| 1778187125 | 25.56° C | 73% | 943.6 hPa | 3.3 mm | - | 842 W/m² | - |
* Rain latest hour (hover to see other rain measurements)
** Current wind speed in m/s (hover to see current wind gust speed)